Погода в Новоаширове

Россия / Оренбургская область     53°20′01″N   53°18′50″E
темп.,
°C
ветер,
м/с
пор.,
м/с
влажн.,
%
обл.,
%
осадки,
мм/ч
давл.,
гПа
погр.,
м
18 апреля, вс
вс1823:00+11св410605 0.0 1020262
02:00+8св410650 0.0 1019224
05:00+7св38675 0.0 1019170
08:00+7св49600 0.0 1019269
11:00+12св56410 0.0 1018549
14:00+15св553530 0.0 10181051
17:00+15св663339 0.0 10181376
20:00+12всв610468 0.0 1018370
19 апреля, пн
пн1923:00+8всв813663 0.0 1020580
02:00+5св713740 0.0 1021449
05:00+4всв6118039 0.0 1022480
08:00+5в81263100 0.0 1023720
11:00+4в91261100 0.0 1024888
14:00+4в81062100 0.0 1026979
17:00+7вюв71055100 0.0 10251175
20:00+7в6104694 0.0 1026631
20 апреля, вт
вт2023:00+4в613469 0.0 1028478
02:00+2вюв612463 0.0 1030494
05:00−1в612490 0.0 1031460
08:000вюв711440 0.0 1032704
11:00+4вюв79320 0.0 10331085
14:00+7вюв79270 0.0 10321315
17:00+9вюв67260 0.0 10311456
20:00+6вюв47370 0.0 1030181
21 апреля, ср
ср2123:00+3юв344789 0.0 103171
02:00+2юв39535 0.0 1031180
05:000юв3957100 0.0 1031188
08:00+2юв5124944 0.0 1032495
11:00+7юв71033100 0.0 1031804
14:00+10юв81027100 0.0 10301192
17:00+11ююв8102721 0.0 10291419
20:00+9ююв51138100 0.0 1029355
22 апреля, чт
чт2223:00+8ююв61343100 0.0 1029433
02:00+7ююв61250100 0.0 1030442
05:00+6ю51058100 0.0 1031434
08:00+6ю51064100 0.0 1032714
11:00+8ю5852100 0.0 1032879
14:00+10ю61145100 0.0 10321390
17:00+12ююз7113499 0.0 10311858
20:00+9зюз4649100 0.0 1031194